Погода в Палкине

Россия / Костромская область     58°14′24″N   42°55′56″E
темп.,
°C
ветер,
м/с
пор.,
м/с
влажн.,
%
обл.,
%
осадки,
мм/ч
давл.,
гПа
погр.,
м
12 мая, ср
ср1200:00+9юв227525 0.0 102918
03:00+8всв12815 0.0 103010
06:00+11в12740 0.0 102965
09:00+17в23595 0.0 1029404
12:00+22в23480 0.0 1027946
15:00+24в34430 0.0 10261601
18:00+21вюв36585 0.0 1025301
21:00+17в297645 0.0 1024211
13 мая, чт
чт1300:00+14юв229064 0.0 102539
03:00+12ююв12876 0.0 102513
06:00+14в258099 0.0 1024131
09:00+20юв375854 0.0 1024709
12:00+22юв4950100 0.0 10221695
15:00+18вюв37737 0.5 1020206
18:00+19ююв6126799 1.1 1019717
21:00+14вюв4139289 1.6 1018723
14 мая, пт
пт1400:00+13юв3997100 0.8 1017400
03:00+13ю279967 1.6 1017277
06:00+14ююз359594 0.0 1018300
09:00+17ююз467675 0.0 10191004
12:00+18юз4871100 0.5 10191328
15:00+20юз4748100 0.6 10181652
18:00+18юз36638 0.0 1018401
21:00+13юз11815 0.0 101711
15 мая, сб
сб1500:00+12всв22874 0.0 101712
03:00+12юв1197100 0.9 101723
06:00+14в2795100 0.8 1015228
09:00+20ююв47776 0.8 1015605
12:00+24ююв355519 0.0 10131243
15:00+25ююв4854100 0.3 10111701
18:00+21ю41172100 3.5 1010513
21:00+17ююз31192100 4.4 1011428
16 мая, вс
вс1600:00+15ю311965 0.4 1011345
03:00+14ю31097100 0.4 1011267
06:00+15ю31095100 0.0 1011348
09:00+19ююз5107385 0.0 10111047
12:00+22юз610518 0.0 10121830
15:00+22юз69489 0.0 10122143
18:00+18зюз497023 0.4 10131121
21:00+13зюз26950 0.6 1015126